Time,TemperatureF,DewpointF,PressureIn,WindDirection,WindDirectionDegrees,WindSpeedMPH,WindSpeedGustMPH,Humidity,HourlyPrecipIn,Conditions,Clouds,dailyrainin,SoftwareType,DateUTC
2013-10-28 00:01:00,51.3,26.5,28.35,SE,135,0.0,0.0,38,0.00,,---,0.00,VWS V14.01,2013-10-28 05:01:00,
2013-10-28 00:06:00,51.1,26.4,28.35,SE,135,0.0,0.0,38,0.00,,---,0.00,VWS V14.01,2013-10-28 05:06:00,
2013-10-28 00:11:00,50.7,26.0,28.35,SE,135,0.0,0.0,38,0.00,,---,0.00,VWS V14.01,2013-10-28 05:11:00,
2013-10-28 00:16:00,50.4,25.7,28.35,SE,135,0.0,0.0,38,0.00,,---,0.00,VWS V14.01,2013-10-28 05:16:00,
2013-10-28 00:21:00,50.2,25.6,28.35,SE,135,0.0,0.0,38,0.00,,---,0.00,VWS V14.01,2013-10-28 05:21:00,
2013-10-28 00:26:00,50.0,25.4,28.38,SE,135,0.0,0.0,38,0.00,,---,0.00,VWS V14.01,2013-10-28 05:26:00,
2013-10-28 00:32:00,49.8,25.9,28.38,SE,135,0.0,0.0,39,0.00,,---,0.00,VWS V14.01,2013-10-28 05:32:00,
2013-10-28 00:37:00,49.6,25.7,28.38,SE,135,0.0,0.0,39,0.00,,---,0.00,VWS V14.01,2013-10-28 05:37:00,
2013-10-28 00:42:00,49.5,25.5,28.38,SE,135,0.0,0.0,39,0.00,,---,0.00,VWS V14.01,2013-10-28 05:42:00,
2013-10-28 00:47:00,49.3,25.4,28.38,SE,135,0.0,0.0,39,0.00,,---,0.00,VWS V14.01,2013-10-28 05:47:00,
2013-10-28 00:52:00,48.9,25.1,28.38,SE,135,0.0,0.0,39,0.00,,---,0.00,VWS V14.01,2013-10-28 05:52:00,
2013-10-28 00:57:00,48.7,25.5,28.38,SE,135,0.0,0.0,40,0.00,,---,0.00,VWS V14.01,2013-10-28 05:57:00,
2013-10-28 01:02:00,48.4,25.2,28.38,SE,135,0.0,0.0,40,0.00,,---,0.00,VWS V14.01,2013-10-28 06:02:00,
2013-10-28 01:07:00,48.0,24.9,28.38,SE,135,0.0,0.0,40,0.00,,---,0.00,VWS V14.01,2013-10-28 06:07:00,
2013-10-28 01:12:00,47.7,25.1,28.38,SE,135,2.7,2.7,41,0.00,,---,0.00,VWS V14.01,2013-10-28 06:12:00,
2013-10-28 01:17:00,47.5,25.5,28.38,SE,135,0.0,2.7,42,0.00,,---,0.00,VWS V14.01,2013-10-28 06:17:00,
2013-10-28 01:22:00,47.5,25.5,28.38,SE,135,0.0,2.7,42,0.00,,---,0.00,VWS V14.01,2013-10-28 06:22:00,
2013-10-28 01:28:00,47.7,25.7,28.38,SE,135,0.0,4.5,42,0.00,,---,0.00,VWS V14.01,2013-10-28 06:28:00,
2013-10-28 01:33:00,47.7,25.7,28.38,SE,135,0.0,4.5,42,0.00,,---,0.00,VWS V14.01,2013-10-28 06:33:00,
2013-10-28 01:38:00,47.8,25.9,28.38,SE,139,2.7,4.9,42,0.00,,---,0.00,VWS V14.01,2013-10-28 06:38:00,
2013-10-28 01:43:00,48.0,26.0,28.38,SE,139,2.2,4.9,42,0.00,,---,0.00,VWS V14.01,2013-10-28 06:43:00,
2013-10-28 01:48:00,48.0,26.0,28.38,SE,139,2.2,4.9,42,0.00,,---,0.00,VWS V14.01,2013-10-28 06:48:00,
2013-10-28 01:53:00,48.0,26.0,28.38,SE,139,0.0,4.9,42,0.00,,---,0.00,VWS V14.01,2013-10-28 06:53:00,
2013-10-28 01:58:00,47.8,25.9,28.38,SE,139,0.0,4.9,42,0.00,,---,0.00,VWS V14.01,2013-10-28 06:58:00,
2013-10-28 02:03:00,47.8,25.9,28.38,SE,139,0.0,0.0,42,0.00,,---,0.00,VWS V14.01,2013-10-28 07:03:00,
2013-10-28 02:08:00,47.7,25.7,28.38,SE,139,0.0,0.0,42,0.00,,---,0.00,VWS V14.01,2013-10-28 07:08:00,
2013-10-28 02:13:00,47.7,25.7,28.38,SE,139,0.0,0.0,42,0.00,,---,0.00,VWS V14.01,2013-10-28 07:13:00,
2013-10-28 02:19:00,47.5,25.5,28.38,SE,139,0.0,0.0,42,0.00,,---,0.00,VWS V14.01,2013-10-28 07:19:00,
2013-10-28 02:24:00,47.5,26.1,28.38,SE,139,0.0,2.7,43,0.00,,---,0.00,VWS V14.01,2013-10-28 07:24:00,
2013-10-28 02:29:00,47.5,26.1,28.38,SE,139,0.0,3.1,43,0.00,,---,0.00,VWS V14.01,2013-10-28 07:29:00,
2013-10-28 02:34:00,47.5,26.7,28.38,SE,139,0.0,3.1,44,0.00,,---,0.00,VWS V14.01,2013-10-28 07:34:00,
2013-10-28 02:39:00,47.7,26.8,28.38,SE,139,2.7,3.1,44,0.00,,---,0.00,VWS V14.01,2013-10-28 07:39:00,
2013-10-28 02:44:00,47.7,26.8,28.38,SE,134,0.0,3.1,44,0.00,,---,0.00,VWS V14.01,2013-10-28 07:44:00,
2013-10-28 02:49:00,47.7,27.4,28.38,SE,134,0.0,3.1,45,0.00,,---,0.00,VWS V14.01,2013-10-28 07:49:00,
2013-10-28 02:54:00,47.7,27.4,28.38,SE,134,0.0,3.1,45,0.00,,---,0.00,VWS V14.01,2013-10-28 07:54:00,
2013-10-28 02:59:00,47.7,27.9,28.38,SE,134,0.0,3.1,46,0.00,,---,0.00,VWS V14.01,2013-10-28 07:59:00,
2013-10-28 03:05:00,47.7,27.9,28.38,SE,136,0.0,0.0,46,0.00,,---,0.00,VWS V14.01,2013-10-28 08:05:00,
2013-10-28 03:10:00,47.5,27.8,28.38,SE,144,3.1,3.6,46,0.00,,---,0.00,VWS V14.01,2013-10-28 08:10:00,
2013-10-28 03:15:00,47.3,28.1,28.38,SSE,147,3.1,4.0,47,0.00,,---,0.00,VWS V14.01,2013-10-28 08:15:00,
2013-10-28 03:20:00,47.3,28.1,28.38,SSE,148,0.0,4.0,47,0.00,,---,0.00,VWS V14.01,2013-10-28 08:20:00,
2013-10-28 03:25:00,47.3,28.1,28.38,SSE,148,0.0,4.0,47,0.00,,---,0.00,VWS V14.01,2013-10-28 08:25:00,
2013-10-28 03:30:00,46.9,27.8,28.38,SSE,148,0.0,4.0,47,0.00,,---,0.00,VWS V14.01,2013-10-28 08:30:00,
2013-10-28 03:35:00,46.8,27.6,28.38,SSE,148,0.0,4.0,47,0.00,,---,0.00,VWS V14.01,2013-10-28 08:35:00,
2013-10-28 03:40:00,46.6,28.0,28.38,SSE,148,0.0,4.0,48,0.00,,---,0.00,VWS V14.01,2013-10-28 08:40:00,
2013-10-28 03:45:00,46.6,28.0,28.38,SSE,148,0.0,4.0,48,0.00,,---,0.00,VWS V14.01,2013-10-28 08:45:00,
2013-10-28 03:50:00,46.4,27.8,28.38,SSE,148,0.0,4.0,48,0.00,,---,0.00,VWS V14.01,2013-10-28 08:50:00,
2013-10-28 03:55:00,46.2,28.1,28.38,SSE,148,0.0,4.0,49,0.00,,---,0.00,VWS V14.01,2013-10-28 08:55:00,
2013-10-28 04:01:00,46.0,28.0,28.38,SSE,148,0.0,0.0,49,0.00,,---,0.00,VWS V14.01,2013-10-28 09:01:00,
2013-10-28 04:06:00,45.9,27.8,28.38,SSE,148,0.0,0.0,49,0.00,,---,0.00,VWS V14.01,2013-10-28 09:06:00,
2013-10-28 04:11:00,45.7,28.1,28.38,SSE,148,0.0,0.0,50,0.00,,---,0.00,VWS V14.01,2013-10-28 09:11:00,
2013-10-28 04:16:00,45.5,28.0,28.38,SSE,148,0.0,0.0,50,0.00,,---,0.00,VWS V14.01,2013-10-28 09:16:00,
2013-10-28 04:21:00,45.3,28.3,28.38,SSE,148,0.0,0.0,51,0.00,,---,0.00,VWS V14.01,2013-10-28 09:21:00,
2013-10-28 04:26:00,45.3,28.3,28.38,SSE,148,0.0,0.0,51,0.00,,---,0.00,VWS V14.01,2013-10-28 09:26:00,
2013-10-28 04:31:00,45.3,28.8,28.38,SSE,148,0.0,0.0,52,0.00,,---,0.00,VWS V14.01,2013-10-28 09:31:00,
2013-10-28 04:36:00,45.5,29.4,28.38,SSE,148,0.0,0.0,53,0.00,,---,0.00,VWS V14.01,2013-10-28 09:36:00,
2013-10-28 04:41:00,45.7,30.5,28.38,SSE,148,0.0,0.0,55,0.00,,---,0.00,VWS V14.01,2013-10-28 09:41:00,
2013-10-28 04:47:00,46.0,30.8,28.38,SSE,148,0.0,0.0,55,0.00,,---,0.00,VWS V14.01,2013-10-28 09:47:00,
2013-10-28 04:52:00,46.2,31.4,28.38,SSE,151,0.0,3.1,56,0.00,,---,0.00,VWS V14.01,2013-10-28 09:52:00,
2013-10-28 04:57:00,46.4,32.0,28.38,SSE,151,0.0,3.1,57,0.00,,---,0.00,VWS V14.01,2013-10-28 09:57:00,
2013-10-28 05:02:00,46.6,32.2,28.38,SSE,151,0.0,0.0,57,0.00,,---,0.00,VWS V14.01,2013-10-28 10:02:00,
2013-10-28 05:07:00,46.6,32.2,28.38,SSE,151,0.0,0.0,57,0.00,,---,0.00,VWS V14.01,2013-10-28 10:07:00,
2013-10-28 05:12:00,46.4,32.0,28.38,SSE,151,0.0,0.0,57,0.00,,---,0.00,VWS V14.01,2013-10-28 10:12:00,
2013-10-28 05:17:00,46.2,31.8,28.38,SSE,151,0.0,0.0,57,0.00,,---,0.00,VWS V14.01,2013-10-28 10:17:00,
2013-10-28 05:22:00,45.9,31.5,28.38,SSE,151,0.0,0.0,57,0.00,,---,0.00,VWS V14.01,2013-10-28 10:22:00,
2013-10-28 05:27:00,45.5,31.2,28.38,SSE,151,0.0,0.0,57,0.00,,---,0.00,VWS V14.01,2013-10-28 10:27:00,
2013-10-28 05:32:00,45.1,31.3,28.38,SSE,151,0.0,0.0,58,0.00,,---,0.00,VWS V14.01,2013-10-28 10:32:00,
2013-10-28 05:38:00,44.8,30.9,28.38,SSE,151,0.0,0.0,58,0.00,,---,0.00,VWS V14.01,2013-10-28 10:38:00,
2013-10-28 05:43:00,44.6,31.2,28.38,SSE,151,0.0,0.0,59,0.00,,---,0.00,VWS V14.01,2013-10-28 10:43:00,
2013-10-28 05:48:00,44.2,31.2,28.38,SSE,151,0.0,0.0,60,0.00,,---,0.00,VWS V14.01,2013-10-28 10:48:00,
2013-10-28 05:53:00,44.1,31.5,28.38,SSE,151,0.0,0.0,61,0.00,,---,0.00,VWS V14.01,2013-10-28 10:53:00,
2013-10-28 05:58:00,44.1,31.5,28.38,SSE,151,0.0,0.0,61,0.00,,---,0.00,VWS V14.01,2013-10-28 10:58:00,
2013-10-28 06:03:00,44.1,31.9,28.38,SSE,151,0.0,0.0,62,0.00,,---,0.00,VWS V14.01,2013-10-28 11:03:00,
2013-10-28 06:08:00,44.1,32.3,28.38,SSE,151,0.0,0.0,63,0.00,,---,0.00,VWS V14.01,2013-10-28 11:08:00,
2013-10-28 06:13:00,43.9,32.9,28.41,SSE,151,0.0,0.0,65,0.00,,---,0.00,VWS V14.01,2013-10-28 11:13:00,
2013-10-28 06:18:00,43.7,33.8,28.41,SSE,151,0.0,0.0,68,0.00,,---,0.00,VWS V14.01,2013-10-28 11:18:00,
2013-10-28 06:24:00,43.5,33.7,28.41,SSE,151,0.0,0.0,68,0.00,,---,0.00,VWS V14.01,2013-10-28 11:24:00,
2013-10-28 06:29:00,43.3,33.5,28.41,SSE,151,0.0,0.0,68,0.00,,---,0.00,VWS V14.01,2013-10-28 11:29:00,
2013-10-28 06:34:00,43.2,34.0,28.41,SSE,151,0.0,0.0,70,0.00,,---,0.00,VWS V14.01,2013-10-28 11:34:00,
2013-10-28 06:39:00,42.8,34.1,28.41,SSE,151,0.0,0.0,71,0.00,,---,0.00,VWS V14.01,2013-10-28 11:39:00,
2013-10-28 06:44:00,42.6,33.9,28.41,SSE,151,0.0,0.0,71,0.00,,---,0.00,VWS V14.01,2013-10-28 11:44:00,
2013-10-28 06:49:00,42.3,33.5,28.41,SSE,151,0.0,0.0,71,0.00,,---,0.00,VWS V14.01,2013-10-28 11:49:00,
2013-10-28 06:54:00,42.1,33.7,28.41,SSE,151,0.0,0.0,72,0.00,,---,0.00,VWS V14.01,2013-10-28 11:54:00,
2013-10-28 06:59:00,41.9,33.5,28.41,SSE,151,0.0,0.0,72,0.00,,---,0.00,VWS V14.01,2013-10-28 11:59:00,
2013-10-28 07:04:00,41.7,33.7,28.41,SSE,151,0.0,0.0,73,0.00,,---,0.00,VWS V14.01,2013-10-28 12:04:00,
2013-10-28 07:09:00,41.5,33.9,28.44,SSE,151,0.0,0.0,74,0.00,,---,0.00,VWS V14.01,2013-10-28 12:09:00,
2013-10-28 07:15:00,41.2,33.5,28.44,SSE,151,0.0,0.0,74,0.00,,---,0.00,VWS V14.01,2013-10-28 12:15:00,
2013-10-28 07:20:00,41.0,33.4,28.44,SSE,151,0.0,0.0,74,0.00,,---,0.00,VWS V14.01,2013-10-28 12:20:00,
2013-10-28 07:25:00,40.6,33.3,28.44,SSE,151,0.0,0.0,75,0.00,,---,0.00,VWS V14.01,2013-10-28 12:25:00,
2013-10-28 07:30:00,40.5,33.2,28.44,SSE,151,0.0,0.0,75,0.00,,---,0.00,VWS V14.01,2013-10-28 12:30:00,
2013-10-28 07:35:00,40.5,33.2,28.44,SSE,151,0.0,0.0,75,0.00,,---,0.00,VWS V14.01,2013-10-28 12:35:00,
2013-10-28 07:40:00,40.5,33.2,28.44,SSE,151,0.0,0.0,75,0.00,,---,0.00,VWS V14.01,2013-10-28 12:40:00,
2013-10-28 07:45:00,40.5,33.5,28.44,SSE,151,0.0,0.0,76,0.00,,---,0.00,VWS V14.01,2013-10-28 12:45:00,
2013-10-28 07:50:00,40.5,33.5,28.44,SSE,151,0.0,0.0,76,0.00,,---,0.00,VWS V14.01,2013-10-28 12:50:00,
2013-10-28 07:55:00,40.5,33.5,28.44,SSE,151,0.0,0.0,76,0.00,,---,0.00,VWS V14.01,2013-10-28 12:55:00,
2013-10-28 08:00:00,40.5,33.5,28.44,SSE,151,0.0,0.0,76,0.00,,---,0.00,VWS V14.01,2013-10-28 13:00:00,
2013-10-28 08:06:00,40.5,33.5,28.44,SSE,151,0.0,0.0,76,0.00,,---,0.00,VWS V14.01,2013-10-28 13:06:00,
2013-10-28 08:11:00,40.6,34.0,28.44,SSE,151,0.0,0.0,77,0.00,,---,0.00,VWS V14.01,2013-10-28 13:11:00,
2013-10-28 08:16:00,40.8,34.2,28.44,SSE,151,0.0,0.0,77,0.00,,---,0.00,VWS V14.01,2013-10-28 13:16:00,
2013-10-28 08:21:00,41.0,34.3,28.44,SSE,151,0.0,0.0,77,0.00,,---,0.00,VWS V14.01,2013-10-28 13:21:00,
2013-10-28 08:26:00,41.5,34.9,28.44,SSE,151,0.0,0.0,77,0.00,,---,0.00,VWS V14.01,2013-10-28 13:26:00,
2013-10-28 08:31:00,42.3,35.9,28.44,SSE,151,0.0,0.0,78,0.00,,---,0.00,VWS V14.01,2013-10-28 13:31:00,
2013-10-28 08:36:00,42.8,36.4,28.44,SSE,151,0.0,0.0,78,0.00,,---,0.00,VWS V14.01,2013-10-28 13:36:00,
2013-10-28 08:41:00,43.5,37.5,28.44,SSE,151,0.0,0.0,79,0.00,,---,0.00,VWS V14.01,2013-10-28 13:41:00,
2013-10-28 08:46:00,44.1,38.0,28.44,SSE,151,0.0,0.0,79,0.00,,---,0.00,VWS V14.01,2013-10-28 13:46:00,
2013-10-28 08:52:00,44.8,38.7,28.44,SSE,151,0.0,0.0,79,0.00,,---,0.00,VWS V14.01,2013-10-28 13:52:00,
2013-10-28 08:57:00,45.3,39.5,28.44,SSE,151,0.0,0.0,80,0.00,,---,0.00,VWS V14.01,2013-10-28 13:57:00,
2013-10-28 09:02:00,45.7,40.2,28.44,SSE,151,0.0,0.0,81,0.00,,---,0.00,VWS V14.01,2013-10-28 14:02:00,
2013-10-28 09:07:00,46.4,40.9,28.44,SSE,151,0.0,0.0,81,0.00,,---,0.00,VWS V14.01,2013-10-28 14:07:00,
2013-10-28 09:12:00,47.1,41.6,28.47,SSE,151,0.0,0.0,81,0.00,,---,0.00,VWS V14.01,2013-10-28 14:12:00,
2013-10-28 09:17:00,47.7,42.4,28.47,SSE,151,0.0,0.0,82,0.00,,---,0.00,VWS V14.01,2013-10-28 14:17:00,
2013-10-28 09:22:00,48.0,43.1,28.47,East,87,0.0,3.6,83,0.00,,---,0.00,VWS V14.01,2013-10-28 14:22:00,
2013-10-28 09:27:00,48.7,43.8,28.47,East,87,0.0,3.6,83,0.00,,---,0.00,VWS V14.01,2013-10-28 14:27:00,
2013-10-28 09:32:00,48.9,44.0,28.47,NNE,30,0.0,3.6,83,0.00,,---,0.00,VWS V14.01,2013-10-28 14:32:00,
2013-10-28 09:37:00,49.5,44.5,28.47,NNE,30,0.0,3.6,83,0.00,,---,0.00,VWS V14.01,2013-10-28 14:37:00,
2013-10-28 09:43:00,49.8,45.2,28.47,NNE,30,0.0,3.6,84,0.00,,---,0.00,VWS V14.01,2013-10-28 14:43:00,
2013-10-28 09:48:00,50.5,45.9,28.47,ESE,122,4.0,4.0,84,0.00,,---,0.00,VWS V14.01,2013-10-28 14:48:00,
2013-10-28 09:53:00,51.8,47.4,28.47,SSE,159,3.6,4.0,85,0.00,,---,0.00,VWS V14.01,2013-10-28 14:53:00,
2013-10-28 09:58:00,52.9,49.1,28.47,SE,139,0.0,6.3,87,0.00,,---,0.00,VWS V14.01,2013-10-28 14:58:00,
2013-10-28 10:03:00,53.6,50.1,28.47,South,180,0.0,3.6,88,0.00,,---,0.00,VWS V14.01,2013-10-28 15:03:00,
2013-10-28 10:08:00,54.3,50.8,28.47,SSE,153,0.0,4.9,88,0.00,,---,0.00,VWS V14.01,2013-10-28 15:08:00,
2013-10-28 10:13:00,54.7,51.2,28.50,SSE,153,0.0,4.9,88,0.00,,---,0.00,VWS V14.01,2013-10-28 15:13:00,
2013-10-28 10:18:00,55.0,51.9,28.50,ESE,118,2.7,5.4,89,0.00,,---,0.00,VWS V14.01,2013-10-28 15:18:00,
2013-10-28 10:23:00,55.6,52.4,28.50,ESE,117,3.6,5.4,89,0.00,,---,0.00,VWS V14.01,2013-10-28 15:23:00,
2013-10-28 10:29:00,55.9,52.8,28.50,SE,140,0.0,5.4,89,0.00,,---,0.00,VWS V14.01,2013-10-28 15:29:00,
2013-10-28 10:34:00,56.3,53.1,28.50,ESE,112,2.7,5.4,89,0.00,,---,0.00,VWS V14.01,2013-10-28 15:34:00,
2013-10-28 10:39:00,56.8,53.6,28.50,ESE,114,3.1,5.4,89,0.00,,---,0.00,VWS V14.01,2013-10-28 15:39:00,
2013-10-28 10:44:00,57.2,54.0,28.50,SE,124,3.1,5.4,89,0.00,,---,0.00,VWS V14.01,2013-10-28 15:44:00,
2013-10-28 10:49:00,57.6,54.0,28.50,SSE,160,2.7,5.4,88,0.00,,---,0.00,VWS V14.01,2013-10-28 15:49:00,
2013-10-28 10:54:00,57.7,54.2,28.50,South,174,4.0,6.3,88,0.00,,---,0.00,VWS V14.01,2013-10-28 15:54:00,
2013-10-28 10:59:00,58.1,53.9,28.50,SSE,167,2.7,6.7,86,0.00,,---,0.00,VWS V14.01,2013-10-28 15:59:00,
2013-10-28 11:04:00,58.5,54.3,28.50,ESE,112,2.7,5.8,86,0.00,,---,0.00,VWS V14.01,2013-10-28 16:04:00,
2013-10-28 11:09:00,58.8,54.0,28.50,ESE,123,4.9,6.3,84,0.00,,---,0.00,VWS V14.01,2013-10-28 16:09:00,
2013-10-28 11:15:00,59.4,54.2,28.50,SSW,212,3.6,6.3,83,0.00,,---,0.00,VWS V14.01,2013-10-28 16:15:00,
2013-10-28 11:20:00,59.7,54.2,28.50,SE,145,3.1,6.3,82,0.00,,---,0.00,VWS V14.01,2013-10-28 16:20:00,
2013-10-28 11:25:00,60.1,54.2,28.50,ESE,114,3.6,6.3,81,0.00,,---,0.00,VWS V14.01,2013-10-28 16:25:00,
2013-10-28 11:30:00,60.6,54.4,28.50,SSE,154,4.0,6.3,80,0.00,,---,0.00,VWS V14.01,2013-10-28 16:30:00,
2013-10-28 11:35:00,61.0,53.7,28.50,South,182,5.4,6.3,77,0.00,,---,0.00,VWS V14.01,2013-10-28 16:35:00,
2013-10-28 11:40:00,61.3,53.4,28.50,SE,139,2.7,6.3,75,0.00,,---,0.00,VWS V14.01,2013-10-28 16:40:00,
2013-10-28 11:45:00,61.7,53.0,28.50,SSE,157,3.6,6.3,73,0.00,,---,0.00,VWS V14.01,2013-10-28 16:45:00,
2013-10-28 11:50:00,62.2,53.1,28.50,SSE,159,3.1,6.3,72,0.00,,---,0.00,VWS V14.01,2013-10-28 16:50:00,
2013-10-28 11:56:00,62.6,53.1,28.50,SSE,154,0.0,6.3,71,0.00,,---,0.00,VWS V14.01,2013-10-28 16:56:00,
2013-10-28 12:01:00,63.0,52.6,28.50,SSE,165,5.4,5.4,69,0.00,,---,0.00,VWS V14.01,2013-10-28 17:01:00,
2013-10-28 12:06:00,63.1,52.4,28.50,ESE,116,2.7,5.8,68,0.00,,---,0.00,VWS V14.01,2013-10-28 17:06:00,
2013-10-28 12:11:00,63.3,51.8,28.50,South,175,3.6,8.7,66,0.00,,---,0.00,VWS V14.01,2013-10-28 17:11:00,
2013-10-28 12:16:00,63.5,51.5,28.50,East,94,3.6,8.7,65,0.00,,---,0.00,VWS V14.01,2013-10-28 17:16:00,
2013-10-28 12:21:00,63.5,51.1,28.50,South,170,5.8,8.7,64,0.00,,---,0.00,VWS V14.01,2013-10-28 17:21:00,
2013-10-28 12:26:00,63.7,51.3,28.50,SSE,158,3.6,8.7,64,0.00,,---,0.00,VWS V14.01,2013-10-28 17:26:00,
2013-10-28 12:31:00,63.7,51.3,28.50,SSE,159,4.9,8.7,64,0.00,,---,0.00,VWS V14.01,2013-10-28 17:31:00,
2013-10-28 12:36:00,63.9,51.5,28.50,South,180,3.1,8.7,64,0.00,,---,0.00,VWS V14.01,2013-10-28 17:36:00,
2013-10-28 12:42:00,63.9,51.5,28.50,SSE,147,5.4,8.7,64,0.00,,---,0.00,VWS V14.01,2013-10-28 17:42:00,
2013-10-28 12:47:00,63.9,51.0,28.50,ESE,111,3.6,8.7,63,0.00,,---,0.00,VWS V14.01,2013-10-28 17:47:00,
2013-10-28 12:52:00,64.0,51.2,28.50,South,175,4.0,8.7,63,0.00,,---,0.00,VWS V14.01,2013-10-28 17:52:00,
2013-10-28 12:57:00,64.0,51.2,28.47,SSW,199,3.1,8.7,63,0.00,,---,0.00,VWS V14.01,2013-10-28 17:57:00,
2013-10-28 13:02:00,64.4,51.5,28.47,SW,216,4.0,4.0,63,0.00,,---,0.00,VWS V14.01,2013-10-28 18:02:00,
2013-10-28 13:07:00,64.9,51.6,28.47,East,101,3.6,4.0,62,0.00,,---,0.00,VWS V14.01,2013-10-28 18:07:00,
2013-10-28 13:12:00,65.1,50.9,28.50,ESE,116,2.2,5.4,60,0.00,,---,0.00,VWS V14.01,2013-10-28 18:12:00,
2013-10-28 13:17:00,64.8,50.6,28.50,NE,43,2.2,8.1,60,0.00,,---,0.00,VWS V14.01,2013-10-28 18:17:00,
2013-10-28 13:22:00,64.8,51.0,28.50,SE,131,2.7,8.1,61,0.00,,---,0.00,VWS V14.01,2013-10-28 18:22:00,
2013-10-28 13:27:00,64.8,51.0,28.47,SSE,157,3.6,8.3,61,0.00,,---,0.00,VWS V14.01,2013-10-28 18:27:00,
2013-10-28 13:33:00,65.1,51.3,28.47,SSE,150,2.2,8.3,61,0.00,,---,0.00,VWS V14.01,2013-10-28 18:33:00,
2013-10-28 13:38:00,65.5,51.2,28.47,ESE,119,2.7,8.3,60,0.00,,---,0.00,VWS V14.01,2013-10-28 18:38:00,
2013-10-28 13:43:00,65.5,50.8,28.47,East,101,3.6,8.3,59,0.00,,---,0.00,VWS V14.01,2013-10-28 18:43:00,
2013-10-28 13:48:00,65.5,50.3,28.47,SE,128,5.8,8.3,58,0.00,,---,0.00,VWS V14.01,2013-10-28 18:48:00,
2013-10-28 13:53:00,65.3,50.2,28.47,ESE,121,2.7,8.3,58,0.00,,---,0.00,VWS V14.01,2013-10-28 18:53:00,
2013-10-28 13:58:00,64.9,49.8,28.47,ESE,120,2.7,8.3,58,0.00,,---,0.00,VWS V14.01,2013-10-28 18:58:00,
2013-10-28 14:03:00,64.2,50.1,28.47,SW,214,3.1,6.3,60,0.00,,---,0.00,VWS V14.01,2013-10-28 19:03:00,
2013-10-28 14:08:00,63.7,50.4,28.47,SE,134,4.0,8.1,62,0.00,,---,0.00,VWS V14.01,2013-10-28 19:08:00,
2013-10-28 14:13:00,63.5,50.7,28.47,South,188,3.1,8.3,63,0.00,,---,0.00,VWS V14.01,2013-10-28 19:13:00,
2013-10-28 14:19:00,63.3,50.5,28.47,East,96,4.0,8.3,63,0.00,,---,0.00,VWS V14.01,2013-10-28 19:19:00,
2013-10-28 14:24:00,63.3,50.5,28.47,SE,124,2.2,8.3,63,0.00,,---,0.00,VWS V14.01,2013-10-28 19:24:00,
2013-10-28 14:29:00,63.5,51.1,28.47,ESE,103,4.9,8.3,64,0.00,,---,0.00,VWS V14.01,2013-10-28 19:29:00,
2013-10-28 14:34:00,63.7,50.9,28.47,ENE,78,4.0,8.3,63,0.00,,---,0.00,VWS V14.01,2013-10-28 19:34:00,
2013-10-28 14:39:00,63.9,51.0,28.44,NNW,339,4.0,8.3,63,0.00,,---,0.00,VWS V14.01,2013-10-28 19:39:00,
2013-10-28 14:44:00,64.2,51.4,28.44,ESE,120,4.9,8.3,63,0.00,,---,0.00,VWS V14.01,2013-10-28 19:44:00,
2013-10-28 14:49:00,64.6,51.3,28.44,SSE,162,2.7,8.3,62,0.00,,---,0.00,VWS V14.01,2013-10-28 19:49:00,
2013-10-28 14:54:00,64.9,50.7,28.44,ESE,102,5.4,8.3,60,0.00,,---,0.00,VWS V14.01,2013-10-28 19:54:00,
2013-10-28 14:59:00,64.8,50.6,28.44,ESE,123,4.9,8.3,60,0.00,,---,0.00,VWS V14.01,2013-10-28 19:59:00,
2013-10-28 15:05:00,64.8,50.6,28.44,NE,56,4.0,8.7,60,0.00,,---,0.00,VWS V14.01,2013-10-28 20:05:00,
2013-10-28 15:10:00,64.8,50.6,28.44,ESE,117,5.8,11.0,60,0.00,,---,0.00,VWS V14.01,2013-10-28 20:10:00,
2013-10-28 15:15:00,64.8,50.1,28.44,NE,41,3.1,11.0,59,0.00,,---,0.00,VWS V14.01,2013-10-28 20:15:00,
2013-10-28 15:20:00,64.6,50.0,28.44,ESE,116,3.1,11.0,59,0.00,,---,0.00,VWS V14.01,2013-10-28 20:20:00,
2013-10-28 15:25:00,64.6,50.4,28.44,ESE,104,3.6,11.0,60,0.00,,---,0.00,VWS V14.01,2013-10-28 20:25:00,
2013-10-28 15:30:00,64.8,50.6,28.44,ENE,68,5.4,11.0,60,0.00,,---,0.00,VWS V14.01,2013-10-28 20:30:00,
2013-10-28 15:35:00,64.9,50.7,28.44,ESE,120,3.1,11.0,60,0.00,,---,0.00,VWS V14.01,2013-10-28 20:35:00,
2013-10-28 15:40:00,65.7,51.0,28.44,SSE,153,4.0,11.0,59,0.00,,---,0.00,VWS V14.01,2013-10-28 20:40:00,
2013-10-28 15:45:00,66.0,50.8,28.44,North,9,3.6,11.0,58,0.00,,---,0.00,VWS V14.01,2013-10-28 20:45:00,
2013-10-28 15:51:00,66.0,50.4,28.44,NNE,16,6.3,11.0,57,0.00,,---,0.00,VWS V14.01,2013-10-28 20:51:00,
2013-10-28 15:56:00,65.8,50.2,28.41,SSW,192,8.1,11.0,57,0.00,,---,0.00,VWS V14.01,2013-10-28 20:56:00,
2013-10-28 16:01:00,66.0,50.8,28.41,SSW,195,3.6,5.4,58,0.00,,---,0.00,VWS V14.01,2013-10-28 21:01:00,
2013-10-28 16:06:00,66.4,50.7,28.41,East,89,3.6,8.1,57,0.00,,---,0.00,VWS V14.01,2013-10-28 21:06:00,
2013-10-28 16:11:00,66.2,50.5,28.44,ESE,118,5.4,8.1,57,0.00,,---,0.00,VWS V14.01,2013-10-28 21:11:00,
2013-10-28 16:16:00,65.8,50.7,28.44,ESE,118,2.7,8.1,58,0.00,,---,0.00,VWS V14.01,2013-10-28 21:16:00,
2013-10-28 16:21:00,65.3,50.6,28.44,East,90,3.1,8.1,59,0.00,,---,0.00,VWS V14.01,2013-10-28 21:21:00,
2013-10-28 16:26:00,64.8,51.0,28.44,NE,49,4.0,8.1,61,0.00,,---,0.00,VWS V14.01,2013-10-28 21:26:00,
2013-10-28 16:31:00,64.6,50.8,28.44,NW,323,4.0,8.1,61,0.00,,---,0.00,VWS V14.01,2013-10-28 21:31:00,
2013-10-28 16:37:00,64.0,50.8,28.44,SSW,192,6.3,10.1,62,0.00,,---,0.00,VWS V14.01,2013-10-28 21:37:00,
2013-10-28 16:42:00,63.7,50.9,28.44,SE,125,4.0,10.1,63,0.00,,---,0.00,VWS V14.01,2013-10-28 21:42:00,
2013-10-28 16:47:00,63.5,51.1,28.44,SE,126,8.1,10.1,64,0.00,,---,0.00,VWS V14.01,2013-10-28 21:47:00,
2013-10-28 16:52:00,63.3,51.4,28.44,NE,49,4.9,10.1,65,0.00,,---,0.00,VWS V14.01,2013-10-28 21:52:00,
2013-10-28 16:57:00,63.0,51.0,28.44,ESE,118,4.9,10.1,65,0.00,,---,0.00,VWS V14.01,2013-10-28 21:57:00,
2013-10-28 17:02:00,62.6,51.1,28.44,SE,142,3.6,8.1,66,0.00,,---,0.00,VWS V14.01,2013-10-28 22:02:00,
2013-10-28 17:07:00,62.4,51.3,28.44,South,191,5.8,12.8,67,0.00,,---,0.00,VWS V14.01,2013-10-28 22:07:00,
2013-10-28 17:12:00,62.2,51.2,28.44,SSW,212,6.3,12.8,67,0.00,,---,0.00,VWS V14.01,2013-10-28 22:12:00,
2013-10-28 17:17:00,62.2,51.6,28.44,SSE,163,5.4,12.8,68,0.00,,---,0.00,VWS V14.01,2013-10-28 22:17:00,
2013-10-28 17:22:00,62.1,51.4,28.44,SE,136,2.7,12.8,68,0.00,,---,0.00,VWS V14.01,2013-10-28 22:22:00,
2013-10-28 17:28:00,61.9,51.6,28.44,South,185,3.6,12.8,69,0.00,,---,0.00,VWS V14.01,2013-10-28 22:28:00,
2013-10-28 17:33:00,61.7,51.4,28.44,South,169,2.2,12.8,69,0.00,,---,0.00,VWS V14.01,2013-10-28 22:33:00,
2013-10-28 17:38:00,61.7,51.4,28.44,SE,126,5.4,12.8,69,0.00,,---,0.00,VWS V14.01,2013-10-28 22:38:00,
2013-10-28 17:43:00,61.7,51.8,28.44,East,92,0.0,12.8,70,0.00,,---,0.00,VWS V14.01,2013-10-28 22:43:00,
2013-10-28 17:48:00,61.7,51.8,28.44,ENE,57,3.6,12.8,70,0.00,,---,0.00,VWS V14.01,2013-10-28 22:48:00,
2013-10-28 17:53:00,61.5,51.7,28.44,NE,49,5.4,12.8,70,0.00,,---,0.00,VWS V14.01,2013-10-28 22:53:00,
2013-10-28 17:58:00,61.5,51.7,28.44,ENE,58,3.1,12.8,70,0.00,,---,0.00,VWS V14.01,2013-10-28 22:58:00,
2013-10-28 18:03:00,61.5,52.0,28.44,NNE,31,5.8,5.8,71,0.00,,---,0.00,VWS V14.01,2013-10-28 23:03:00,
2013-10-28 18:09:00,61.5,52.0,28.44,NE,42,0.0,5.8,71,0.00,,---,0.00,VWS V14.01,2013-10-28 23:09:00,
2013-10-28 18:14:00,61.3,51.9,28.44,East,91,8.1,8.7,71,0.00,,---,0.00,VWS V14.01,2013-10-28 23:14:00,
2013-10-28 18:19:00,61.3,51.9,28.44,North,357,2.2,8.7,71,0.00,,---,0.00,VWS V14.01,2013-10-28 23:19:00,
2013-10-28 18:24:00,61.2,51.7,28.44,North,357,3.1,8.7,71,0.00,,---,0.00,VWS V14.01,2013-10-28 23:24:00,
2013-10-28 18:29:00,61.0,51.5,28.44,NE,54,6.3,8.7,71,0.00,,---,0.00,VWS V14.01,2013-10-28 23:29:00,
2013-10-28 18:34:00,60.6,51.6,28.44,NNE,19,3.1,8.7,72,0.00,,---,0.00,VWS V14.01,2013-10-28 23:34:00,
2013-10-28 18:39:00,60.6,51.9,28.44,NNE,16,2.7,8.7,73,0.00,,---,0.00,VWS V14.01,2013-10-28 23:39:00,
2013-10-28 18:44:00,60.4,51.8,28.44,North,8,3.6,8.7,73,0.00,,---,0.00,VWS V14.01,2013-10-28 23:44:00,
2013-10-28 18:49:00,60.4,51.8,28.44,NNE,15,3.1,9.6,73,0.00,,---,0.00,VWS V14.01,2013-10-28 23:49:00,
2013-10-28 18:54:00,60.3,51.6,28.44,East,83,2.7,11.0,73,0.00,,---,0.00,VWS V14.01,2013-10-28 23:54:00,
2013-10-28 19:00:00,60.1,51.8,28.44,NNE,15,3.6,11.0,74,0.00,,---,0.00,VWS V14.01,2013-10-29 00:00:00,
2013-10-28 19:05:00,59.9,51.6,28.44,ESE,122,0.0,4.9,74,0.00,,---,0.00,VWS V14.01,2013-10-29 00:05:00,
2013-10-28 19:10:00,59.9,51.6,28.44,North,3,4.9,4.9,74,0.00,,---,0.00,VWS V14.01,2013-10-29 00:10:00,
2013-10-28 19:15:00,59.7,51.4,28.44,ESE,102,3.6,6.7,74,0.00,,---,0.00,VWS V14.01,2013-10-29 00:15:00,
2013-10-28 19:20:00,59.7,51.8,28.44,East,90,0.0,6.7,75,0.00,,---,0.00,VWS V14.01,2013-10-29 00:20:00,
2013-10-28 19:25:00,59.7,51.8,28.47,NNE,27,4.0,6.7,75,0.00,,---,0.00,VWS V14.01,2013-10-29 00:25:00,
2013-10-28 19:30:00,59.5,51.6,28.47,East,79,3.6,6.7,75,0.00,,---,0.00,VWS V14.01,2013-10-29 00:30:00,
2013-10-28 19:35:00,59.5,51.6,28.47,North,349,3.6,7.2,75,0.00,,---,0.00,VWS V14.01,2013-10-29 00:35:00,
2013-10-28 19:40:00,59.5,51.6,28.47,East,82,3.1,7.2,75,0.00,,---,0.00,VWS V14.01,2013-10-29 00:40:00,
2013-10-28 19:45:00,59.5,51.6,28.47,NE,47,0.0,10.5,75,0.00,,---,0.00,VWS V14.01,2013-10-29 00:45:00,
2013-10-28 19:51:00,59.4,51.5,28.47,East,101,3.1,10.5,75,0.00,,---,0.00,VWS V14.01,2013-10-29 00:51:00,
2013-10-28 19:56:00,59.4,51.5,28.47,NNE,26,3.1,10.5,75,0.00,,---,0.00,VWS V14.01,2013-10-29 00:56:00,
2013-10-28 20:01:00,59.4,51.5,28.47,NNE,18,3.1,4.0,75,0.00,,---,0.00,VWS V14.01,2013-10-29 01:01:00,
2013-10-28 20:06:00,59.4,51.5,28.47,North,11,2.2,6.3,75,0.00,,---,0.00,VWS V14.01,2013-10-29 01:06:00,
2013-10-28 20:11:00,59.4,51.5,28.47,ENE,72,0.0,6.3,75,0.00,,---,0.00,VWS V14.01,2013-10-29 01:11:00,
2013-10-28 20:16:00,59.2,51.3,28.47,NNE,22,2.2,6.3,75,0.00,,---,0.00,VWS V14.01,2013-10-29 01:16:00,
2013-10-28 20:21:00,59.2,51.3,28.47,ESE,119,2.2,7.2,75,0.00,,---,0.00,VWS V14.01,2013-10-29 01:21:00,
2013-10-28 20:26:00,59.2,51.6,28.47,ESE,112,2.7,7.2,76,0.00,,---,0.00,VWS V14.01,2013-10-29 01:26:00,
2013-10-28 20:31:00,59.2,51.6,28.47,NNE,12,4.0,7.2,76,0.00,,---,0.00,VWS V14.01,2013-10-29 01:31:00,
2013-10-28 20:37:00,59.2,51.6,28.47,SE,131,2.7,7.2,76,0.00,,---,0.00,VWS V14.01,2013-10-29 01:37:00,
2013-10-28 20:42:00,59.2,51.6,28.47,SE,126,3.6,7.2,76,0.00,,---,0.00,VWS V14.01,2013-10-29 01:42:00,
2013-10-28 20:47:00,59.2,51.6,28.47,NW,325,4.0,7.2,76,0.00,,---,0.00,VWS V14.01,2013-10-29 01:47:00,
2013-10-28 20:52:00,59.2,51.6,28.47,East,85,2.7,7.2,76,0.00,,---,0.00,VWS V14.01,2013-10-29 01:52:00,
2013-10-28 20:57:00,59.2,51.6,28.47,South,173,0.0,7.2,76,0.00,,---,0.00,VWS V14.01,2013-10-29 01:57:00,
2013-10-28 21:02:00,59.2,51.6,28.47,East,97,3.1,4.0,76,0.00,,---,0.00,VWS V14.01,2013-10-29 02:02:00,
2013-10-28 21:07:00,59.2,51.6,28.47,East,100,0.0,4.0,76,0.00,,---,0.00,VWS V14.01,2013-10-29 02:07:00,
2013-10-28 21:12:00,59.2,51.6,28.47,ESE,104,2.7,4.9,76,0.00,,---,0.00,VWS V14.01,2013-10-29 02:12:00,
2013-10-28 21:17:00,59.2,51.6,28.47,ENE,58,2.2,5.8,76,0.00,,---,0.00,VWS V14.01,2013-10-29 02:17:00,
2013-10-28 21:22:00,59.2,51.6,28.47,East,80,0.0,5.8,76,0.00,,---,0.00,VWS V14.01,2013-10-29 02:22:00,
2013-10-28 21:28:00,59.2,51.6,28.47,ENE,63,0.0,5.8,76,0.00,,---,0.00,VWS V14.01,2013-10-29 02:28:00,
2013-10-28 21:33:00,59.2,52.0,28.47,NNE,22,2.2,5.8,77,0.00,,---,0.00,VWS V14.01,2013-10-29 02:33:00,
2013-10-28 21:38:00,59.2,52.0,28.47,SSE,162,2.7,5.8,77,0.00,,---,0.00,VWS V14.01,2013-10-29 02:38:00,
2013-10-28 21:43:00,59.2,52.0,28.47,NE,46,2.2,5.8,77,0.00,,---,0.00,VWS V14.01,2013-10-29 02:43:00,
2013-10-28 21:48:00,59.2,52.0,28.47,NE,51,3.1,5.8,77,0.00,,---,0.00,VWS V14.01,2013-10-29 02:48:00,
2013-10-28 21:53:00,59.4,52.2,28.47,North,9,0.0,5.8,77,0.00,,---,0.00,VWS V14.01,2013-10-29 02:53:00,
2013-10-28 21:58:00,59.4,51.8,28.47,North,8,4.0,5.8,76,0.00,,---,0.00,VWS V14.01,2013-10-29 02:58:00,
2013-10-28 22:03:00,59.4,51.8,28.47,NW,307,0.0,8.1,76,0.00,,---,0.00,VWS V14.01,2013-10-29 03:03:00,
2013-10-28 22:08:00,59.4,51.8,28.47,East,86,2.7,8.1,76,0.00,,---,0.00,VWS V14.01,2013-10-29 03:08:00,
2013-10-28 22:14:00,59.4,51.8,28.47,ENE,77,2.2,8.1,76,0.00,,---,0.00,VWS V14.01,2013-10-29 03:14:00,
2013-10-28 22:19:00,59.4,51.8,28.47,East,83,0.0,8.1,76,0.00,,---,0.00,VWS V14.01,2013-10-29 03:19:00,
2013-10-28 22:24:00,59.4,51.8,28.47,SE,125,3.6,8.1,76,0.00,,---,0.00,VWS V14.01,2013-10-29 03:24:00,
2013-10-28 22:29:00,59.4,51.8,28.47,SE,143,2.7,8.1,76,0.00,,---,0.00,VWS V14.01,2013-10-29 03:29:00,
2013-10-28 22:34:00,59.4,51.8,28.47,ESE,108,4.0,8.1,76,0.00,,---,0.00,VWS V14.01,2013-10-29 03:34:00,
2013-10-28 22:39:00,59.4,51.5,28.44,SE,124,2.7,8.1,75,0.00,,---,0.00,VWS V14.01,2013-10-29 03:39:00,
2013-10-28 22:44:00,59.4,51.5,28.44,SE,128,4.9,8.1,75,0.00,,---,0.00,VWS V14.01,2013-10-29 03:44:00,
2013-10-28 22:49:00,59.4,51.5,28.44,ESE,113,5.4,8.1,75,0.00,,---,0.00,VWS V14.01,2013-10-29 03:49:00,
2013-10-28 22:54:00,59.4,51.5,28.47,North,2,0.0,8.1,75,0.00,,---,0.00,VWS V14.01,2013-10-29 03:54:00,
2013-10-28 22:59:00,59.2,51.6,28.47,East,100,0.0,8.1,76,0.00,,---,0.00,VWS V14.01,2013-10-29 03:59:00,
2013-10-28 23:01:00,59.2,51.6,28.47,NE,42,2.7,3.1,76,0.00,,---,0.00,VWS V14.01,2013-10-29 04:01:00,
2013-10-28 23:02:00,59.2,51.6,28.47,East,101,3.6,3.6,76,0.00,,---,0.00,VWS V14.01,2013-10-29 04:02:00,
2013-10-28 23:04:00,59.2,51.6,28.47,ESE,108,0.0,3.6,76,0.00,,---,0.00,VWS V14.01,2013-10-29 04:04:00,
2013-10-28 23:05:00,59.2,51.6,28.47,East,84,4.0,4.0,76,0.00,,---,0.00,VWS V14.01,2013-10-29 04:05:00,
2013-10-28 23:10:00,59.2,52.0,28.44,ESE,115,3.6,4.0,77,0.00,,---,0.00,VWS V14.01,2013-10-29 04:10:00,
2013-10-28 23:15:00,59.0,52.2,28.44,East,88,0.0,4.0,78,0.00,,---,0.00,VWS V14.01,2013-10-29 04:15:00,
2013-10-28 23:20:00,58.8,52.0,28.44,East,85,0.0,4.0,78,0.00,,---,0.00,VWS V14.01,2013-10-29 04:20:00,
2013-10-28 23:25:00,58.6,51.8,28.47,NNW,337,0.0,4.0,78,0.00,,---,0.00,VWS V14.01,2013-10-29 04:25:00,
2013-10-28 23:30:00,58.5,52.0,28.47,North,2,0.0,4.0,79,0.00,,---,0.00,VWS V14.01,2013-10-29 04:30:00,
2013-10-28 23:35:00,58.5,52.0,28.47,ENE,77,0.0,4.0,79,0.00,,---,0.00,VWS V14.01,2013-10-29 04:35:00,
2013-10-28 23:40:00,58.5,52.3,28.44,North,353,2.2,4.0,80,0.00,,---,0.00,VWS V14.01,2013-10-29 04:40:00,
2013-10-28 23:46:00,58.5,52.3,28.44,SSE,153,4.0,4.9,80,0.00,,---,0.00,VWS V14.01,2013-10-29 04:46:00,
2013-10-28 23:51:00,58.6,52.5,28.44,ESE,118,0.0,4.9,80,0.00,,---,0.00,VWS V14.01,2013-10-29 04:51:00,
2013-10-28 23:56:00,58.6,52.8,28.44,South,177,0.0,4.9,81,0.00,,---,0.00,VWS V14.01,2013-10-29 04:56:00,